Time,TemperatureF,DewpointF,PressureIn,WindDirection,WindDirectionDegrees,WindSpeedMPH,WindSpeedGustMPH,Humidity,HourlyPrecipIn,Conditions,Clouds,dailyrainin,SoftwareType,DateUTC
2013-03-31 00:00:00,53.6,45.2,30.09,South,180,4.0,8.0,73,0.00,,,0.00,VWS V14.01,2013-03-31 04:00:00,
2013-03-31 00:05:00,53.5,45.1,30.09,SW,221,1.0,7.0,73,0.00,,,0.00,VWS V14.01,2013-03-31 04:05:00,
2013-03-31 00:10:00,53.4,45.0,30.09,SW,220,2.0,7.0,73,0.00,,,0.00,VWS V14.01,2013-03-31 04:10:00,
2013-03-31 00:15:00,53.4,45.0,30.09,South,171,2.0,7.0,73,0.00,,,0.00,VWS V14.01,2013-03-31 04:15:00,
2013-03-31 00:20:00,53.3,45.2,30.09,SW,221,4.0,7.0,74,0.00,,,0.00,VWS V14.01,2013-03-31 04:20:00,
2013-03-31 00:25:00,53.2,45.1,30.09,SSE,157,2.0,7.0,74,0.00,,,0.00,VWS V14.01,2013-03-31 04:25:00,
2013-03-31 00:30:00,53.2,45.1,30.09,SSE,160,3.0,7.0,74,0.00,,,0.00,VWS V14.01,2013-03-31 04:30:00,
2013-03-31 00:35:00,53.1,45.0,30.09,SSW,207,3.0,7.0,74,0.00,,,0.00,VWS V14.01,2013-03-31 04:35:00,
2013-03-31 00:40:00,53.0,45.3,30.09,SSE,148,4.0,7.0,75,0.00,,,0.00,VWS V14.01,2013-03-31 04:40:00,
2013-03-31 00:45:00,53.0,45.3,30.09,South,183,1.0,7.0,75,0.00,,,0.00,VWS V14.01,2013-03-31 04:45:00,
2013-03-31 00:50:00,52.9,45.2,30.08,South,186,4.0,7.0,75,0.00,,,0.00,VWS V14.01,2013-03-31 04:50:00,
2013-03-31 00:55:00,52.8,45.1,30.08,SSE,153,1.0,7.0,75,0.00,,,0.00,VWS V14.01,2013-03-31 04:55:00,
2013-03-31 01:00:00,52.9,45.2,30.08,South,175,2.0,7.0,75,0.00,,,0.00,VWS V14.01,2013-03-31 05:00:00,
2013-03-31 01:05:00,52.8,45.1,30.08,SSE,165,4.0,7.0,75,0.00,,,0.00,VWS V14.01,2013-03-31 05:05:00,
2013-03-31 01:10:00,52.7,45.0,30.08,SSE,168,0.0,8.0,75,0.00,,,0.00,VWS V14.01,2013-03-31 05:10:00,
2013-03-31 01:15:00,52.6,44.9,30.08,West,263,1.0,8.0,75,0.00,,,0.00,VWS V14.01,2013-03-31 05:15:00,
2013-03-31 01:20:00,52.5,44.8,30.08,South,191,1.0,8.0,75,0.00,,,0.00,VWS V14.01,2013-03-31 05:20:00,
2013-03-31 01:25:00,52.4,44.7,30.08,SSW,205,5.0,8.0,75,0.00,,,0.00,VWS V14.01,2013-03-31 05:25:00,
2013-03-31 01:30:00,52.4,44.4,30.07,South,183,6.0,8.0,74,0.00,,,0.00,VWS V14.01,2013-03-31 05:30:00,
2013-03-31 01:35:00,52.3,44.3,30.07,WSW,240,2.0,6.0,74,0.00,,,0.00,VWS V14.01,2013-03-31 05:35:00,
2013-03-31 01:40:00,52.2,44.2,30.07,SW,236,4.0,6.0,74,0.00,,,0.00,VWS V14.01,2013-03-31 05:40:00,
2013-03-31 01:45:00,52.2,44.2,30.07,WSW,240,0.0,7.0,74,0.00,,,0.00,VWS V14.01,2013-03-31 05:45:00,
2013-03-31 01:50:00,52.1,44.1,30.07,SSE,152,1.0,8.0,74,0.00,,,0.00,VWS V14.01,2013-03-31 05:50:00,
2013-03-31 01:55:00,52.0,44.0,30.06,SSE,150,3.0,8.0,74,0.00,,,0.00,VWS V14.01,2013-03-31 05:55:00,
2013-03-31 02:00:00,52.0,44.0,30.06,South,182,3.0,8.0,74,0.00,,,0.00,VWS V14.01,2013-03-31 06:00:00,
2013-03-31 02:05:00,52.0,44.0,30.06,SSW,207,2.0,11.0,74,0.00,,,0.00,VWS V14.01,2013-03-31 06:05:00,
2013-03-31 02:10:00,51.9,43.9,30.06,South,184,4.0,11.0,74,0.00,,,0.00,VWS V14.01,2013-03-31 06:10:00,
2013-03-31 02:15:00,51.8,44.1,30.06,South,183,2.0,11.0,75,0.00,,,0.00,VWS V14.01,2013-03-31 06:15:00,
2013-03-31 02:20:00,51.6,44.0,30.06,SW,225,4.0,11.0,75,0.00,,,0.00,VWS V14.01,2013-03-31 06:20:00,
2013-03-31 02:25:00,51.5,43.8,30.06,SSE,155,2.0,11.0,75,0.00,,,0.00,VWS V14.01,2013-03-31 06:25:00,
2013-03-31 02:30:00,51.4,43.4,30.05,ESE,115,3.0,11.0,74,0.00,,,0.00,VWS V14.01,2013-03-31 06:30:00,
2013-03-31 02:35:00,51.3,43.3,30.05,West,270,2.0,8.0,74,0.00,,,0.00,VWS V14.01,2013-03-31 06:35:00,
2013-03-31 02:40:00,51.2,43.2,30.05,South,186,4.0,9.0,74,0.00,,,0.00,VWS V14.01,2013-03-31 06:40:00,
2013-03-31 02:45:00,51.2,43.2,30.05,South,190,4.0,9.0,74,0.00,,,0.00,VWS V14.01,2013-03-31 06:45:00,
2013-03-31 02:50:00,51.1,43.1,30.04,SSE,161,3.0,9.0,74,0.00,,,0.00,VWS V14.01,2013-03-31 06:50:00,
2013-03-31 02:55:00,51.0,43.0,30.04,SSE,167,0.0,9.0,74,0.00,,,0.00,VWS V14.01,2013-03-31 06:55:00,
2013-03-31 03:00:00,50.9,42.9,30.04,SSE,160,0.0,9.0,74,0.00,,,0.00,VWS V14.01,2013-03-31 07:00:00,
2013-03-31 03:05:00,50.7,43.1,30.04,SE,140,1.0,5.0,75,0.00,,,0.00,VWS V14.01,2013-03-31 07:05:00,
2013-03-31 03:10:00,50.6,43.0,30.03,SSE,159,1.0,6.0,75,0.00,,,0.00,VWS V14.01,2013-03-31 07:10:00,
2013-03-31 03:15:00,50.6,43.0,30.03,SSE,149,1.0,6.0,75,0.00,,,0.00,VWS V14.01,2013-03-31 07:15:00,
2013-03-31 03:20:00,50.5,42.9,30.03,South,180,1.0,6.0,75,0.00,,,0.00,VWS V14.01,2013-03-31 07:20:00,
2013-03-31 03:25:00,50.5,42.9,30.03,SE,140,1.0,6.0,75,0.00,,,0.00,VWS V14.01,2013-03-31 07:25:00,
2013-03-31 03:30:00,50.4,42.8,30.02,SE,129,0.0,6.0,75,0.00,,,0.00,VWS V14.01,2013-03-31 07:30:00,
2013-03-31 03:35:00,50.3,43.0,30.02,SSE,150,0.0,2.0,76,0.00,,,0.00,VWS V14.01,2013-03-31 07:35:00,
2013-03-31 03:40:00,50.2,42.9,30.02,ESE,103,0.0,2.0,76,0.00,,,0.00,VWS V14.01,2013-03-31 07:40:00,
2013-03-31 03:45:00,50.1,42.8,30.01,SSE,163,0.0,2.0,76,0.00,,,0.00,VWS V14.01,2013-03-31 07:45:00,
2013-03-31 03:50:00,50.0,42.7,30.01,SSW,206,1.0,3.0,76,0.00,,,0.00,VWS V14.01,2013-03-31 07:50:00,
2013-03-31 03:55:00,49.9,43.0,30.01,SE,146,0.0,3.0,77,0.00,,,0.00,VWS V14.01,2013-03-31 07:55:00,
2013-03-31 04:00:00,49.9,42.7,30.01,SE,146,1.0,4.0,76,0.00,,,0.00,VWS V14.01,2013-03-31 08:00:00,
2013-03-31 04:05:00,49.9,42.7,30.00,SSE,150,2.0,4.0,76,0.00,,,0.00,VWS V14.01,2013-03-31 08:05:00,
2013-03-31 04:10:00,49.9,42.7,30.00,SSW,196,2.0,4.0,76,0.00,,,0.00,VWS V14.01,2013-03-31 08:10:00,
2013-03-31 04:15:00,49.9,42.7,30.00,South,188,1.0,4.0,76,0.00,,,0.00,VWS V14.01,2013-03-31 08:15:00,
2013-03-31 04:20:00,50.0,42.7,30.00,ESE,118,4.0,4.0,76,0.00,,,0.00,VWS V14.01,2013-03-31 08:20:00,
2013-03-31 04:25:00,50.1,42.8,30.00,SSE,150,1.0,4.0,76,0.00,,,0.00,VWS V14.01,2013-03-31 08:25:00,
2013-03-31 04:30:00,50.1,42.8,29.99,SSE,155,2.0,5.0,76,0.00,,,0.00,VWS V14.01,2013-03-31 08:30:00,
2013-03-31 04:35:00,50.1,42.8,29.99,SSE,165,0.0,4.0,76,0.00,,,0.00,VWS V14.01,2013-03-31 08:35:00,
2013-03-31 04:40:00,50.1,42.8,29.99,SE,127,3.0,6.0,76,0.00,,,0.00,VWS V14.01,2013-03-31 08:40:00,
2013-03-31 04:45:00,50.2,42.6,29.98,SE,134,2.0,6.0,75,0.00,,,0.00,VWS V14.01,2013-03-31 08:45:00,
2013-03-31 04:50:00,50.3,43.0,29.98,South,186,1.0,6.0,76,0.00,,,0.00,VWS V14.01,2013-03-31 08:50:00,
2013-03-31 04:55:00,50.3,42.7,29.98,SSE,150,1.0,6.0,75,0.00,,,0.00,VWS V14.01,2013-03-31 08:55:00,
2013-03-31 05:00:00,50.3,42.7,29.97,SE,140,0.0,6.0,75,0.00,,,0.00,VWS V14.01,2013-03-31 09:00:00,
2013-03-31 05:05:00,50.3,43.0,29.97,ESE,103,3.0,5.0,76,0.00,,,0.00,VWS V14.01,2013-03-31 09:05:00,
2013-03-31 05:10:00,50.4,43.1,29.97,South,171,1.0,5.0,76,0.00,,,0.00,VWS V14.01,2013-03-31 09:10:00,
2013-03-31 05:15:00,50.4,43.1,29.97,SSE,154,4.0,5.0,76,0.00,,,0.00,VWS V14.01,2013-03-31 09:15:00,
2013-03-31 05:20:00,50.4,43.1,29.97,SSW,207,3.0,5.0,76,0.00,,,0.00,VWS V14.01,2013-03-31 09:20:00,
2013-03-31 05:25:00,50.5,43.2,29.97,SE,129,3.0,6.0,76,0.00,,,0.00,VWS V14.01,2013-03-31 09:25:00,
2013-03-31 05:30:00,50.6,43.3,29.97,SE,134,4.0,8.0,76,0.00,,,0.00,VWS V14.01,2013-03-31 09:30:00,
2013-03-31 05:35:00,50.7,43.4,29.97,SW,228,2.0,8.0,76,0.00,,,0.00,VWS V14.01,2013-03-31 09:35:00,
2013-03-31 05:40:00,50.8,43.5,29.97,South,178,6.0,8.0,76,0.00,,,0.00,VWS V14.01,2013-03-31 09:40:00,
2013-03-31 05:45:00,50.9,43.6,29.98,SW,214,4.0,10.0,76,0.00,,,0.00,VWS V14.01,2013-03-31 09:45:00,
2013-03-31 05:50:00,50.9,44.3,29.98,SSE,161,6.0,10.0,78,0.00,,,0.00,VWS V14.01,2013-03-31 09:50:00,
2013-03-31 05:55:00,50.7,44.1,29.98,SW,222,3.0,10.0,78,0.00,,,0.00,VWS V14.01,2013-03-31 09:55:00,
2013-03-31 06:00:00,50.6,44.3,29.99,SSW,211,2.0,10.0,79,0.00,,,0.00,VWS V14.01,2013-03-31 10:00:00,
2013-03-31 06:05:00,50.5,44.6,29.99,WSW,250,0.0,4.0,80,0.00,,,0.00,VWS V14.01,2013-03-31 10:05:00,
2013-03-31 06:10:00,50.3,44.7,29.99,SW,215,1.0,4.0,81,0.00,,,0.00,VWS V14.01,2013-03-31 10:10:00,
2013-03-31 06:15:00,50.2,45.2,29.99,WSW,242,0.0,4.0,83,0.01,,,0.01,VWS V14.01,2013-03-31 10:15:00,
2013-03-31 06:20:00,49.9,45.6,29.99,ESE,118,1.0,4.0,85,0.01,,,0.01,VWS V14.01,2013-03-31 10:20:00,
2013-03-31 06:25:00,49.8,46.1,30.00,SW,227,3.0,4.0,87,0.02,,,0.02,VWS V14.01,2013-03-31 10:25:00,
2013-03-31 06:30:00,49.6,46.2,30.00,SW,228,1.0,4.0,88,0.03,,,0.03,VWS V14.01,2013-03-31 10:30:00,
2013-03-31 06:35:00,49.4,46.3,30.00,WSW,239,2.0,3.0,89,0.04,,,0.04,VWS V14.01,2013-03-31 10:35:00,
2013-03-31 06:40:00,49.2,46.4,30.00,WSW,245,1.0,4.0,90,0.06,,,0.06,VWS V14.01,2013-03-31 10:40:00,
2013-03-31 06:45:00,48.9,46.1,30.00,SW,229,1.0,4.0,90,0.08,,,0.08,VWS V14.01,2013-03-31 10:45:00,
2013-03-31 06:50:00,48.7,46.2,30.00,South,185,0.0,4.0,91,0.09,,,0.09,VWS V14.01,2013-03-31 10:50:00,
2013-03-31 06:55:00,48.5,46.3,29.99,ESE,109,0.0,4.0,92,0.11,,,0.11,VWS V14.01,2013-03-31 10:55:00,
2013-03-31 07:00:00,48.4,46.2,29.99,SSE,153,1.0,4.0,92,0.12,,,0.12,VWS V14.01,2013-03-31 11:00:00,
2013-03-31 07:05:00,48.3,46.1,29.99,SSE,163,1.0,4.0,92,0.13,,,0.13,VWS V14.01,2013-03-31 11:05:00,
2013-03-31 07:10:00,48.1,45.9,29.98,SSE,156,2.0,4.0,92,0.15,,,0.15,VWS V14.01,2013-03-31 11:10:00,
2013-03-31 07:15:00,48.0,46.1,29.98,SSW,213,0.0,4.0,93,0.16,,,0.16,VWS V14.01,2013-03-31 11:15:00,
2013-03-31 07:20:00,47.9,46.0,29.97,SE,142,0.0,6.0,93,0.17,,,0.17,VWS V14.01,2013-03-31 11:20:00,
2013-03-31 07:25:00,47.9,46.3,29.97,WSW,242,1.0,6.0,94,0.18,,,0.18,VWS V14.01,2013-03-31 11:25:00,
2013-03-31 07:30:00,47.9,46.3,29.98,SSW,196,0.0,6.0,94,0.20,,,0.20,VWS V14.01,2013-03-31 11:30:00,
2013-03-31 07:35:00,47.9,46.3,29.97,ESE,122,2.0,2.0,94,0.19,,,0.22,VWS V14.01,2013-03-31 11:35:00,
2013-03-31 07:40:00,47.9,46.3,29.97,SSW,203,0.0,2.0,94,0.21,,,0.24,VWS V14.01,2013-03-31 11:40:00,
2013-03-31 07:45:00,47.9,46.5,29.96,SSE,150,0.0,2.0,95,0.22,,,0.25,VWS V14.01,2013-03-31 11:45:00,
2013-03-31 07:50:00,47.8,46.4,29.96,SSE,164,0.0,2.0,95,0.23,,,0.26,VWS V14.01,2013-03-31 11:50:00,
2013-03-31 07:55:00,47.8,46.4,29.97,South,182,5.0,5.0,95,0.24,,,0.27,VWS V14.01,2013-03-31 11:55:00,
2013-03-31 08:00:00,47.8,46.4,29.96,SSW,211,5.0,5.0,95,0.24,,,0.27,VWS V14.01,2013-03-31 12:00:00,
2013-03-31 08:05:00,47.9,46.5,29.97,ESE,109,3.0,5.0,95,0.16,,,0.28,VWS V14.01,2013-03-31 12:05:00,
2013-03-31 08:10:00,47.9,46.5,29.95,South,179,2.0,5.0,95,0.17,,,0.29,VWS V14.01,2013-03-31 12:10:00,
2013-03-31 08:15:00,47.9,46.8,29.95,SSW,195,0.0,5.0,96,0.18,,,0.30,VWS V14.01,2013-03-31 12:15:00,
2013-03-31 08:20:00,48.1,47.0,29.95,ESE,106,1.0,5.0,96,0.18,,,0.30,VWS V14.01,2013-03-31 12:20:00,
2013-03-31 08:25:00,48.2,47.1,29.95,SSE,163,4.0,8.0,96,0.18,,,0.30,VWS V14.01,2013-03-31 12:25:00,
2013-03-31 08:30:00,48.3,47.2,29.96,SSW,206,6.0,8.0,96,0.18,,,0.30,VWS V14.01,2013-03-31 12:30:00,
2013-03-31 08:35:00,48.4,47.3,29.95,SE,142,0.0,2.0,96,0.10,,,0.30,VWS V14.01,2013-03-31 12:35:00,
2013-03-31 08:40:00,48.6,47.5,29.95,SSE,165,0.0,5.0,96,0.10,,,0.30,VWS V14.01,2013-03-31 12:40:00,
2013-03-31 08:45:00,48.7,47.6,29.96,SW,227,2.0,5.0,96,0.10,,,0.30,VWS V14.01,2013-03-31 12:45:00,
2013-03-31 08:50:00,48.9,48.1,29.95,SSE,159,1.0,5.0,97,0.10,,,0.30,VWS V14.01,2013-03-31 12:50:00,
2013-03-31 08:55:00,49.0,48.2,29.95,SSW,211,4.0,6.0,97,0.11,,,0.31,VWS V14.01,2013-03-31 12:55:00,
2013-03-31 09:00:00,49.2,48.4,29.95,SSW,205,1.0,6.0,97,0.11,,,0.31,VWS V14.01,2013-03-31 13:00:00,
2013-03-31 09:05:00,49.3,48.5,29.95,SW,218,3.0,6.0,97,0.04,,,0.31,VWS V14.01,2013-03-31 13:05:00,
2013-03-31 09:10:00,49.5,48.7,29.95,SSW,209,1.0,6.0,97,0.04,,,0.31,VWS V14.01,2013-03-31 13:10:00,
2013-03-31 09:15:00,49.7,48.9,29.94,South,185,2.0,7.0,97,0.04,,,0.31,VWS V14.01,2013-03-31 13:15:00,
2013-03-31 09:20:00,49.9,49.1,29.94,SSW,211,3.0,7.0,97,0.04,,,0.31,VWS V14.01,2013-03-31 13:20:00,
2013-03-31 09:25:00,50.0,49.2,29.94,South,184,2.0,7.0,97,0.04,,,0.31,VWS V14.01,2013-03-31 13:25:00,
2013-03-31 09:30:00,50.1,49.3,29.94,SW,234,3.0,7.0,97,0.04,,,0.31,VWS V14.01,2013-03-31 13:30:00,
2013-03-31 09:35:00,50.4,49.6,29.93,SW,219,4.0,5.0,97,0.01,,,0.31,VWS V14.01,2013-03-31 13:35:00,
2013-03-31 09:40:00,50.6,49.8,29.93,South,176,2.0,6.0,97,0.01,,,0.31,VWS V14.01,2013-03-31 13:40:00,
2013-03-31 09:45:00,50.9,50.1,29.93,SE,146,1.0,6.0,97,0.01,,,0.31,VWS V14.01,2013-03-31 13:45:00,
2013-03-31 09:50:00,51.2,50.4,29.93,ESE,121,3.0,6.0,97,0.01,,,0.31,VWS V14.01,2013-03-31 13:50:00,
2013-03-31 09:55:00,51.5,50.7,29.93,SSE,164,2.0,7.0,97,0.01,,,0.31,VWS V14.01,2013-03-31 13:55:00,
2013-03-31 10:00:00,52.0,51.2,29.93,SW,225,0.0,7.0,97,0.01,,,0.31,VWS V14.01,2013-03-31 14:00:00,
2013-03-31 10:05:00,52.5,51.7,29.92,SW,227,0.0,10.0,97,0.00,,,0.31,VWS V14.01,2013-03-31 14:05:00,
2013-03-31 10:10:00,53.2,52.1,29.92,SSE,168,4.0,10.0,96,0.00,,,0.31,VWS V14.01,2013-03-31 14:10:00,
2013-03-31 10:15:00,53.5,52.1,29.92,WSW,238,3.0,10.0,95,0.00,,,0.31,VWS V14.01,2013-03-31 14:15:00,
2013-03-31 10:20:00,54.0,52.6,29.92,SE,130,2.0,10.0,95,0.00,,,0.31,VWS V14.01,2013-03-31 14:20:00,
2013-03-31 10:25:00,54.6,52.9,29.92,WSW,249,3.0,10.0,94,0.00,,,0.31,VWS V14.01,2013-03-31 14:25:00,
2013-03-31 10:30:00,55.3,53.3,29.92,West,272,0.0,10.0,93,0.00,,,0.31,VWS V14.01,2013-03-31 14:30:00,
2013-03-31 10:35:00,56.1,53.5,29.92,SSW,192,3.0,6.0,91,0.00,,,0.31,VWS V14.01,2013-03-31 14:35:00,
2013-03-31 10:40:00,56.7,54.1,29.92,SW,223,3.0,7.0,91,0.00,,,0.31,VWS V14.01,2013-03-31 14:40:00,
2013-03-31 10:45:00,57.2,53.7,29.91,SW,233,4.0,11.0,88,0.00,,,0.31,VWS V14.01,2013-03-31 14:45:00,
2013-03-31 10:50:00,57.5,54.0,29.92,SW,216,2.0,11.0,88,0.00,,,0.31,VWS V14.01,2013-03-31 14:50:00,
2013-03-31 10:55:00,57.7,53.9,29.92,WSW,252,6.0,11.0,87,0.00,,,0.31,VWS V14.01,2013-03-31 14:55:00,
2013-03-31 11:00:00,57.7,53.9,29.91,WSW,257,4.0,11.0,87,0.00,,,0.31,VWS V14.01,2013-03-31 15:00:00,
2013-03-31 11:05:00,57.8,54.0,29.91,WSW,255,3.0,5.0,87,0.00,,,0.31,VWS V14.01,2013-03-31 15:05:00,
2013-03-31 11:10:00,58.1,54.3,29.91,WSW,240,4.0,10.0,87,0.00,,,0.31,VWS V14.01,2013-03-31 15:10:00,
2013-03-31 11:15:00,58.5,54.3,29.91,SSE,168,4.0,10.0,86,0.00,,,0.31,VWS V14.01,2013-03-31 15:15:00,
2013-03-31 11:20:00,58.7,54.5,29.91,SSW,205,4.0,10.0,86,0.00,,,0.31,VWS V14.01,2013-03-31 15:20:00,
2013-03-31 11:25:00,59.2,54.7,29.90,SW,229,5.0,10.0,85,0.00,,,0.31,VWS V14.01,2013-03-31 15:25:00,
2013-03-31 11:30:00,60.1,55.9,29.90,WSW,252,1.0,10.0,86,0.00,,,0.31,VWS V14.01,2013-03-31 15:30:00,
2013-03-31 11:35:00,60.9,56.0,29.90,WSW,247,4.0,8.0,84,0.00,,,0.31,VWS V14.01,2013-03-31 15:35:00,
2013-03-31 11:40:00,61.4,55.9,29.90,WSW,247,2.0,8.0,82,0.00,,,0.31,VWS V14.01,2013-03-31 15:40:00,
2013-03-31 11:45:00,62.2,55.6,29.89,SW,221,3.0,8.0,79,0.00,,,0.31,VWS V14.01,2013-03-31 15:45:00,
2013-03-31 11:50:00,62.9,55.9,29.89,WSW,250,4.0,9.0,78,0.00,,,0.31,VWS V14.01,2013-03-31 15:50:00,
2013-03-31 11:55:00,63.9,56.6,29.90,SW,236,5.0,9.0,77,0.00,,,0.31,VWS V14.01,2013-03-31 15:55:00,
2013-03-31 12:00:00,63.8,55.7,29.90,West,261,4.0,12.0,75,0.00,,,0.31,VWS V14.01,2013-03-31 16:00:00,
2013-03-31 12:05:00,63.8,55.7,29.89,West,260,6.0,6.0,75,0.00,,,0.31,VWS V14.01,2013-03-31 16:05:00,
2013-03-31 12:10:00,63.9,55.5,29.89,WNW,284,4.0,8.0,74,0.00,,,0.31,VWS V14.01,2013-03-31 16:10:00,
2013-03-31 12:15:00,64.0,55.6,29.88,South,169,5.0,10.0,74,0.00,,,0.31,VWS V14.01,2013-03-31 16:15:00,
2013-03-31 12:20:00,64.1,55.3,29.88,SW,220,8.0,11.0,73,0.00,,,0.31,VWS V14.01,2013-03-31 16:20:00,
2013-03-31 12:25:00,64.1,55.3,29.88,WSW,255,5.0,11.0,73,0.00,,,0.31,VWS V14.01,2013-03-31 16:25:00,
2013-03-31 12:31:00,63.8,55.0,29.88,WSW,245,4.0,12.0,73,0.00,,,0.31,VWS V14.01,2013-03-31 16:31:00,
2013-03-31 12:36:00,63.7,55.3,29.88,West,270,2.0,7.0,74,0.00,,,0.31,VWS V14.01,2013-03-31 16:36:00,
2013-03-31 12:40:00,63.5,55.1,29.88,WSW,245,8.0,8.0,74,0.00,,,0.31,VWS V14.01,2013-03-31 16:40:00,
2013-03-31 12:45:00,63.3,54.9,29.88,WSW,252,7.0,16.0,74,0.00,,,0.31,VWS V14.01,2013-03-31 16:45:00,
2013-03-31 12:50:00,63.2,54.4,29.88,SW,225,4.0,16.0,73,0.00,,,0.31,VWS V14.01,2013-03-31 16:50:00,
2013-03-31 12:55:00,63.3,54.5,29.88,WSW,241,9.0,16.0,73,0.00,,,0.31,VWS V14.01,2013-03-31 16:55:00,
2013-03-31 13:00:00,63.7,54.9,29.87,West,269,5.0,16.0,73,0.00,,,0.31,VWS V14.01,2013-03-31 17:00:00,
2013-03-31 13:05:00,64.6,55.4,29.87,WSW,240,6.0,11.0,72,0.00,,,0.31,VWS V14.01,2013-03-31 17:05:00,
2013-03-31 13:10:00,65.1,55.1,29.87,SSW,211,9.0,17.0,70,0.00,,,0.31,VWS V14.01,2013-03-31 17:10:00,
2013-03-31 13:15:00,65.4,55.4,29.86,WSW,250,3.0,17.0,70,0.00,,,0.31,VWS V14.01,2013-03-31 17:15:00,
2013-03-31 13:20:00,65.6,55.2,29.86,SW,236,8.0,17.0,69,0.00,,,0.31,VWS V14.01,2013-03-31 17:20:00,
2013-03-31 13:25:00,65.4,55.0,29.86,WSW,239,2.0,17.0,69,0.00,,,0.31,VWS V14.01,2013-03-31 17:25:00,
2013-03-31 13:30:00,65.4,55.4,29.86,WSW,252,4.0,17.0,70,0.00,,,0.31,VWS V14.01,2013-03-31 17:30:00,
2013-03-31 13:35:00,65.4,55.4,29.85,NW,322,3.0,9.0,70,0.00,,,0.31,VWS V14.01,2013-03-31 17:35:00,
2013-03-31 13:40:00,65.4,55.4,29.85,WSW,238,9.0,14.0,70,0.00,,,0.31,VWS V14.01,2013-03-31 17:40:00,
2013-03-31 13:45:00,65.4,55.4,29.84,SW,227,3.0,14.0,70,0.00,,,0.31,VWS V14.01,2013-03-31 17:45:00,
2013-03-31 13:50:00,65.7,55.3,29.85,SW,219,6.0,14.0,69,0.00,,,0.31,VWS V14.01,2013-03-31 17:50:00,
2013-03-31 13:55:00,65.8,55.8,29.85,WSW,244,3.0,14.0,70,0.00,,,0.31,VWS V14.01,2013-03-31 17:55:00,
2013-03-31 14:00:00,66.0,56.0,29.84,West,265,2.0,14.0,70,0.00,,,0.31,VWS V14.01,2013-03-31 18:00:00,
2013-03-31 14:05:00,66.0,55.5,29.84,West,259,5.0,10.0,69,0.00,,,0.31,VWS V14.01,2013-03-31 18:05:00,
2013-03-31 14:10:00,65.7,55.7,29.85,WSW,250,3.0,11.0,70,0.00,,,0.31,VWS V14.01,2013-03-31 18:10:00,
2013-03-31 14:15:00,65.5,55.5,29.85,WSW,246,5.0,11.0,70,0.00,,,0.31,VWS V14.01,2013-03-31 18:15:00,
2013-03-31 14:20:00,65.6,56.0,29.85,WSW,255,1.0,11.0,71,0.00,,,0.31,VWS V14.01,2013-03-31 18:20:00,
2013-03-31 14:25:00,65.9,55.8,29.84,WSW,252,2.0,11.0,70,0.00,,,0.31,VWS V14.01,2013-03-31 18:25:00,
2013-03-31 14:30:00,65.8,55.4,29.84,West,267,8.0,11.0,69,0.00,,,0.31,VWS V14.01,2013-03-31 18:30:00,
2013-03-31 14:35:00,65.6,55.2,29.84,WSW,250,4.0,10.0,69,0.00,,,0.31,VWS V14.01,2013-03-31 18:35:00,
2013-03-31 14:40:00,65.8,55.8,29.83,SW,221,2.0,10.0,70,0.00,,,0.31,VWS V14.01,2013-03-31 18:40:00,
2013-03-31 14:45:00,65.9,55.5,29.83,WSW,240,9.0,10.0,69,0.00,,,0.31,VWS V14.01,2013-03-31 18:45:00,
2013-03-31 14:50:00,65.8,55.8,29.83,West,262,3.0,10.0,70,0.00,,,0.31,VWS V14.01,2013-03-31 18:50:00,
2013-03-31 14:55:00,66.1,56.0,29.83,SSW,201,6.0,10.0,70,0.00,,,0.31,VWS V14.01,2013-03-31 18:55:00,
2013-03-31 15:00:00,66.4,55.9,29.82,WSW,248,5.0,10.0,69,0.00,,,0.31,VWS V14.01,2013-03-31 19:00:00,
2013-03-31 15:05:00,66.3,55.8,29.82,SW,233,9.0,9.0,69,0.00,,,0.31,VWS V14.01,2013-03-31 19:05:00,
2013-03-31 15:10:00,66.3,55.8,29.82,SW,219,1.0,9.0,69,0.00,,,0.31,VWS V14.01,2013-03-31 19:10:00,
2013-03-31 15:15:00,66.2,55.7,29.82,WSW,239,1.0,11.0,69,0.00,,,0.31,VWS V14.01,2013-03-31 19:15:00,
2013-03-31 15:20:00,66.0,55.5,29.81,SW,226,2.0,11.0,69,0.00,,,0.31,VWS V14.01,2013-03-31 19:20:00,
2013-03-31 15:25:00,66.1,55.2,29.81,West,267,5.0,11.0,68,0.00,,,0.31,VWS V14.01,2013-03-31 19:25:00,
2013-03-31 15:30:00,66.5,55.6,29.81,SW,221,2.0,11.0,68,0.00,,,0.31,VWS V14.01,2013-03-31 19:30:00,
2013-03-31 15:35:00,66.6,55.3,29.81,WSW,254,7.0,11.0,67,0.00,,,0.31,VWS V14.01,2013-03-31 19:35:00,
2013-03-31 15:40:00,66.7,55.4,29.81,WSW,242,2.0,11.0,67,0.00,,,0.31,VWS V14.01,2013-03-31 19:40:00,
2013-03-31 15:45:00,66.8,55.5,29.81,NE,44,2.0,11.0,67,0.00,,,0.31,VWS V14.01,2013-03-31 19:45:00,
2013-03-31 15:50:00,66.6,55.7,29.81,West,279,1.0,11.0,68,0.00,,,0.31,VWS V14.01,2013-03-31 19:50:00,
2013-03-31 15:55:00,66.6,55.7,29.81,WSW,240,6.0,11.0,68,0.00,,,0.31,VWS V14.01,2013-03-31 19:55:00,
2013-03-31 16:00:00,66.7,55.8,29.82,West,263,6.0,11.0,68,0.00,,,0.31,VWS V14.01,2013-03-31 20:00:00,
2013-03-31 16:05:00,66.7,55.8,29.81,WNW,284,2.0,5.0,68,0.00,,,0.31,VWS V14.01,2013-03-31 20:05:00,
2013-03-31 16:10:00,66.8,55.9,29.82,West,259,4.0,8.0,68,0.00,,,0.31,VWS V14.01,2013-03-31 20:10:00,
2013-03-31 16:15:00,67.1,56.2,29.82,SW,225,7.0,8.0,68,0.00,,,0.31,VWS V14.01,2013-03-31 20:15:00,
2013-03-31 16:20:00,67.4,56.5,29.82,WSW,258,3.0,8.0,68,0.00,,,0.31,VWS V14.01,2013-03-31 20:20:00,
2013-03-31 16:25:00,67.5,56.2,29.82,WSW,251,4.0,8.0,67,0.00,,,0.31,VWS V14.01,2013-03-31 20:25:00,
2013-03-31 16:30:00,67.4,56.5,29.82,SW,236,3.0,8.0,68,0.00,,,0.31,VWS V14.01,2013-03-31 20:30:00,
2013-03-31 16:35:00,67.5,56.2,29.82,SW,232,1.0,6.0,67,0.00,,,0.31,VWS V14.01,2013-03-31 20:35:00,
2013-03-31 16:40:00,67.4,56.1,29.82,West,273,3.0,7.0,67,0.00,,,0.31,VWS V14.01,2013-03-31 20:40:00,
2013-03-31 16:45:00,67.4,56.5,29.81,WNW,298,1.0,7.0,68,0.00,,,0.31,VWS V14.01,2013-03-31 20:45:00,
2013-03-31 16:50:00,67.4,56.5,29.81,SW,214,0.0,7.0,68,0.00,,,0.31,VWS V14.01,2013-03-31 20:50:00,
2013-03-31 16:55:00,67.5,56.6,29.81,WSW,245,2.0,7.0,68,0.00,,,0.31,VWS V14.01,2013-03-31 20:55:00,
2013-03-31 17:00:00,67.8,56.5,29.81,West,264,3.0,7.0,67,0.00,,,0.31,VWS V14.01,2013-03-31 21:00:00,
2013-03-31 17:05:00,68.1,56.3,29.81,WSW,257,8.0,8.0,66,0.00,,,0.31,VWS V14.01,2013-03-31 21:05:00,
2013-03-31 17:10:00,68.3,56.5,29.81,NNW,327,3.0,8.0,66,0.00,,,0.31,VWS V14.01,2013-03-31 21:10:00,
2013-03-31 17:15:00,68.4,56.2,29.81,WSW,241,2.0,8.0,65,0.00,,,0.31,VWS V14.01,2013-03-31 21:15:00,
2013-03-31 17:20:00,68.4,56.2,29.81,WNW,289,1.0,8.0,65,0.00,,,0.31,VWS V14.01,2013-03-31 21:20:00,
2013-03-31 17:25:00,68.5,55.9,29.80,WSW,253,4.0,8.0,64,0.00,,,0.31,VWS V14.01,2013-03-31 21:25:00,
2013-03-31 17:30:00,68.4,55.8,29.80,West,275,3.0,8.0,64,0.00,,,0.31,VWS V14.01,2013-03-31 21:30:00,
2013-03-31 17:35:00,68.3,56.1,29.80,WNW,294,3.0,10.0,65,0.00,,,0.31,VWS V14.01,2013-03-31 21:35:00,
2013-03-31 17:40:00,68.0,56.2,29.80,WNW,301,4.0,10.0,66,0.00,,,0.31,VWS V14.01,2013-03-31 21:40:00,
2013-03-31 17:45:00,67.2,56.3,29.80,NW,314,1.0,10.0,68,0.00,,,0.31,VWS V14.01,2013-03-31 21:45:00,
2013-03-31 17:50:00,67.1,56.6,29.80,WSW,238,1.0,10.0,69,0.00,,,0.31,VWS V14.01,2013-03-31 21:50:00,
2013-03-31 17:55:00,67.0,56.5,29.80,WNW,292,1.0,10.0,69,0.00,,,0.31,VWS V14.01,2013-03-31 21:55:00,
2013-03-31 18:00:00,67.1,56.6,29.80,WSW,242,1.0,10.0,69,0.00,,,0.31,VWS V14.01,2013-03-31 22:00:00,
2013-03-31 18:05:00,67.2,56.3,29.80,WSW,248,3.0,4.0,68,0.00,,,0.31,VWS V14.01,2013-03-31 22:05:00,
2013-03-31 18:10:00,67.3,56.0,29.80,West,273,1.0,5.0,67,0.00,,,0.31,VWS V14.01,2013-03-31 22:10:00,
2013-03-31 18:15:00,67.4,55.7,29.80,WSW,250,2.0,5.0,66,0.00,,,0.31,VWS V14.01,2013-03-31 22:15:00,
2013-03-31 18:20:00,67.5,55.8,29.80,WSW,237,2.0,5.0,66,0.00,,,0.31,VWS V14.01,2013-03-31 22:20:00,
2013-03-31 18:25:00,67.5,54.9,29.80,WSW,248,2.0,7.0,64,0.00,,,0.31,VWS V14.01,2013-03-31 22:25:00,
2013-03-31 18:30:00,67.5,54.9,29.80,West,261,9.0,9.0,64,0.00,,,0.31,VWS V14.01,2013-03-31 22:30:00,
2013-03-31 18:35:00,67.2,55.0,29.80,WSW,237,2.0,7.0,65,0.00,,,0.31,VWS V14.01,2013-03-31 22:35:00,
2013-03-31 18:40:00,66.7,55.0,29.80,WNW,288,2.0,7.0,66,0.00,,,0.31,VWS V14.01,2013-03-31 22:40:00,
2013-03-31 18:45:00,66.1,54.4,29.81,NW,305,1.0,7.0,66,0.00,,,0.31,VWS V14.01,2013-03-31 22:45:00,
2013-03-31 18:50:00,65.6,54.4,29.81,WSW,238,3.0,7.0,67,0.00,,,0.31,VWS V14.01,2013-03-31 22:50:00,
2013-03-31 18:55:00,65.4,54.6,29.81,WNW,285,0.0,7.0,68,0.00,,,0.31,VWS V14.01,2013-03-31 22:55:00,
2013-03-31 19:00:00,65.1,54.3,29.81,SW,225,1.0,7.0,68,0.00,,,0.31,VWS V14.01,2013-03-31 23:00:00,
2013-03-31 19:05:00,64.9,54.5,29.81,WSW,241,0.0,2.0,69,0.00,,,0.31,VWS V14.01,2013-03-31 23:05:00,
2013-03-31 19:10:00,64.8,54.4,29.80,WSW,245,1.0,2.0,69,0.00,,,0.31,VWS V14.01,2013-03-31 23:10:00,
2013-03-31 19:15:00,64.6,54.2,29.80,SW,232,0.0,2.0,69,0.00,,,0.31,VWS V14.01,2013-03-31 23:15:00,
2013-03-31 19:20:00,64.4,54.0,29.80,SW,221,1.0,2.0,69,0.00,,,0.31,VWS V14.01,2013-03-31 23:20:00,
2013-03-31 19:25:00,64.2,54.2,29.81,WSW,240,1.0,2.0,70,0.00,,,0.31,VWS V14.01,2013-03-31 23:25:00,
2013-03-31 19:30:00,64.0,54.0,29.80,WSW,244,0.0,2.0,70,0.00,,,0.31,VWS V14.01,2013-03-31 23:30:00,
2013-03-31 19:35:00,63.8,53.8,29.80,SW,230,0.0,1.0,70,0.00,,,0.31,VWS V14.01,2013-03-31 23:35:00,
2013-03-31 19:40:00,63.7,54.1,29.80,WSW,242,1.0,2.0,71,0.00,,,0.31,VWS V14.01,2013-03-31 23:40:00,
2013-03-31 19:45:00,63.5,53.9,29.80,SSW,192,0.0,2.0,71,0.00,,,0.31,VWS V14.01,2013-03-31 23:45:00,
2013-03-31 19:50:00,63.2,54.0,29.80,South,178,0.0,2.0,72,0.00,,,0.31,VWS V14.01,2013-03-31 23:50:00,
2013-03-31 19:55:00,63.0,54.2,29.80,South,178,0.0,2.0,73,0.00,,,0.31,VWS V14.01,2013-03-31 23:55:00,
2013-03-31 20:00:00,62.8,54.4,29.80,SSE,148,0.0,2.0,74,0.00,,,0.31,VWS V14.01,2013-04-01 00:00:00,
2013-03-31 20:05:00,62.7,54.7,29.81,SSE,148,0.0,0.0,75,0.00,,,0.31,VWS V14.01,2013-04-01 00:05:00,
2013-03-31 20:10:00,62.6,54.6,29.81,SSE,149,0.0,0.0,75,0.00,,,0.31,VWS V14.01,2013-04-01 00:10:00,
2013-03-31 20:15:00,62.6,55.3,29.81,SSE,149,0.0,0.0,77,0.00,,,0.31,VWS V14.01,2013-04-01 00:15:00,
2013-03-31 20:20:00,62.6,55.3,29.81,WSW,238,0.0,0.0,77,0.00,,,0.31,VWS V14.01,2013-04-01 00:20:00,
2013-03-31 20:25:00,62.5,55.2,29.81,West,277,0.0,0.0,77,0.00,,,0.31,VWS V14.01,2013-04-01 00:25:00,
2013-03-31 20:30:00,62.5,55.9,29.81,NW,313,0.0,2.0,79,0.00,,,0.31,VWS V14.01,2013-04-01 00:30:00,
2013-03-31 20:35:00,62.0,56.1,29.82,NNW,331,2.0,3.0,81,0.00,,,0.31,VWS V14.01,2013-04-01 00:35:00,
2013-03-31 20:40:00,61.4,56.2,29.83,WNW,302,2.0,3.0,83,0.00,,,0.31,VWS V14.01,2013-04-01 00:40:00,
2013-03-31 20:45:00,60.7,56.2,29.82,West,260,4.0,5.0,85,0.01,,,0.32,VWS V14.01,2013-04-01 00:45:00,
2013-03-31 20:50:00,60.1,56.2,29.83,NNE,32,2.0,5.0,87,0.01,,,0.32,VWS V14.01,2013-04-01 00:50:00,
2013-03-31 20:55:00,59.9,56.3,29.84,WNW,286,3.0,5.0,88,0.01,,,0.32,VWS V14.01,2013-04-01 00:55:00,
2013-03-31 21:00:00,59.7,56.5,29.85,WNW,288,4.0,12.0,89,0.01,,,0.32,VWS V14.01,2013-04-01 01:00:00,
2013-03-31 21:05:00,59.4,56.2,29.85,NW,325,7.0,9.0,89,0.01,,,0.32,VWS V14.01,2013-04-01 01:05:00,
2013-03-31 21:10:00,59.1,55.9,29.85,NW,309,9.0,13.0,89,0.01,,,0.32,VWS V14.01,2013-04-01 01:10:00,
2013-03-31 21:15:00,58.8,55.6,29.84,WNW,300,6.0,14.0,89,0.01,,,0.32,VWS V14.01,2013-04-01 01:15:00,
2013-03-31 21:20:00,58.4,55.5,29.85,NW,322,4.0,14.0,90,0.01,,,0.32,VWS V14.01,2013-04-01 01:20:00,
2013-03-31 21:25:00,58.2,55.6,29.84,NW,315,0.0,14.0,91,0.01,,,0.32,VWS V14.01,2013-04-01 01:25:00,
2013-03-31 21:30:00,58.0,55.4,29.84,NW,305,1.0,14.0,91,0.01,,,0.32,VWS V14.01,2013-04-01 01:30:00,
2013-03-31 21:35:00,57.9,55.3,29.84,NNE,23,0.0,1.0,91,0.01,,,0.32,VWS V14.01,2013-04-01 01:35:00,
2013-03-31 21:40:00,57.8,55.5,29.84,NNE,24,0.0,1.0,92,0.01,,,0.32,VWS V14.01,2013-04-01 01:40:00,
2013-03-31 21:45:00,57.6,55.3,29.84,NNE,24,0.0,1.0,92,0.01,,,0.32,VWS V14.01,2013-04-01 01:45:00,
2013-03-31 21:50:00,57.5,55.2,29.84,NNE,24,0.0,1.0,92,0.01,,,0.32,VWS V14.01,2013-04-01 01:50:00,
2013-03-31 21:55:00,57.4,55.1,29.84,NNE,24,0.0,1.0,92,0.01,,,0.32,VWS V14.01,2013-04-01 01:55:00,
2013-03-31 22:00:00,57.3,55.3,29.85,NNE,23,0.0,1.0,93,0.01,,,0.32,VWS V14.01,2013-04-01 02:00:00,
2013-03-31 22:05:00,57.2,55.2,29.84,NNE,24,0.0,0.0,93,0.00,,,0.32,VWS V14.01,2013-04-01 02:05:00,
2013-03-31 22:10:00,57.2,55.2,29.85,NNE,24,0.0,0.0,93,0.00,,,0.32,VWS V14.01,2013-04-01 02:10:00,
2013-03-31 22:15:00,57.1,55.1,29.84,NNE,24,0.0,0.0,93,0.00,,,0.32,VWS V14.01,2013-04-01 02:15:00,
2013-03-31 22:20:00,57.1,55.1,29.84,NNE,24,0.0,0.0,93,0.00,,,0.32,VWS V14.01,2013-04-01 02:20:00,
2013-03-31 22:25:00,57.0,55.0,29.84,NNE,27,0.0,0.0,93,0.00,,,0.32,VWS V14.01,2013-04-01 02:25:00,
2013-03-31 22:30:00,57.0,55.3,29.85,NNE,28,0.0,1.0,94,0.00,,,0.32,VWS V14.01,2013-04-01 02:30:00,
2013-03-31 22:35:00,56.9,55.2,29.84,SE,133,0.0,0.0,94,0.00,,,0.32,VWS V14.01,2013-04-01 02:35:00,
2013-03-31 22:40:00,56.8,55.1,29.84,SSE,159,0.0,1.0,94,0.00,,,0.32,VWS V14.01,2013-04-01 02:40:00,
2013-03-31 22:45:00,56.7,55.0,29.84,SSE,155,0.0,1.0,94,0.00,,,0.32,VWS V14.01,2013-04-01 02:45:00,
2013-03-31 22:50:00,56.7,55.0,29.84,SSE,165,0.0,1.0,94,0.00,,,0.32,VWS V14.01,2013-04-01 02:50:00,
2013-03-31 22:55:00,56.6,54.9,29.84,SSE,168,0.0,2.0,94,0.00,,,0.32,VWS V14.01,2013-04-01 02:55:00,
2013-03-31 23:00:00,56.5,54.8,29.84,SSW,203,0.0,2.0,94,0.00,,,0.32,VWS V14.01,2013-04-01 03:00:00,
2013-03-31 23:05:00,56.5,54.8,29.83,South,190,2.0,2.0,94,0.00,,,0.32,VWS V14.01,2013-04-01 03:05:00,
2013-03-31 23:10:00,56.4,55.0,29.83,SSE,168,1.0,2.0,95,0.00,,,0.32,VWS V14.01,2013-04-01 03:10:00,
2013-03-31 23:15:00,56.3,54.9,29.83,SSW,212,1.0,3.0,95,0.00,,,0.32,VWS V14.01,2013-04-01 03:15:00,
2013-03-31 23:20:00,56.3,54.9,29.83,SW,223,0.0,3.0,95,0.00,,,0.32,VWS V14.01,2013-04-01 03:20:00,
2013-03-31 23:25:00,56.2,54.5,29.83,SSE,167,0.0,3.0,94,0.00,,,0.32,VWS V14.01,2013-04-01 03:25:00,
2013-03-31 23:30:00,56.1,54.7,29.83,SSW,194,0.0,3.0,95,0.00,,,0.32,VWS V14.01,2013-04-01 03:30:00,
2013-03-31 23:35:00,55.9,54.5,29.83,SW,218,0.0,1.0,95,0.00,,,0.32,VWS V14.01,2013-04-01 03:35:00,
2013-03-31 23:40:00,55.9,54.5,29.83,South,179,0.0,1.0,95,0.00,,,0.32,VWS V14.01,2013-04-01 03:40:00,
2013-03-31 23:45:00,55.8,54.4,29.83,SSE,164,0.0,1.0,95,0.00,,,0.32,VWS V14.01,2013-04-01 03:45:00,
2013-03-31 23:50:00,55.8,54.4,29.83,SSW,200,0.0,1.0,95,0.00,,,0.32,VWS V14.01,2013-04-01 03:50:00,
2013-03-31 23:55:00,55.7,54.3,29.83,SSW,200,0.0,1.0,95,0.00,,,0.32,VWS V14.01,2013-04-01 03:55:00,